time, Switch, Flow(0), Analog(2)
yyyy/mm/dd HH:MM:SS.fff, True=FILTERED|False=TOTAL, L/min, V
2023/06/15 22:00:05.814, True, 0.674, 0.134203
2023/06/15 22:00:06.318, True, 0.663, 0.134890
2023/06/15 22:00:06.821, True, 0.663, 0.136110
2023/06/15 22:00:07.317, True, 0.337, 0.134279
2023/06/15 22:00:07.822, True, 0.663, 0.136110
2023/06/15 22:00:08.318, True, 0.674, 0.133669
2023/06/15 22:00:08.822, True, 0.332, 0.134203
2023/06/15 22:00:09.326, True, 0.663, 0.137636
2023/06/15 22:00:09.822, True, 0.674, 0.134813
2023/06/15 22:00:10.325, True, 0.332, 0.134356
2023/06/15 22:00:10.830, True, 0.663, 0.133364
2023/06/15 22:00:11.326, True, 0.337, 0.134890
2023/06/15 22:00:11.830, True, 0.663, 0.133974
2023/06/15 22:00:12.334, True, 0.663, 0.134737
2023/06/15 22:00:12.830, True, 0.337, 0.133059
2023/06/15 22:00:13.334, True, 0.663, 0.135653
2023/06/15 22:00:13.838, True, 0.663, 0.135882
2023/06/15 22:00:14.342, True, 0.332, 0.135042
2023/06/15 22:00:14.838, True, 0.674, 0.133745
2023/06/15 22:00:15.342, True, 0.331, 0.135348
2023/06/15 22:00:15.846, True, 0.663, 0.135805
2023/06/15 22:00:16.342, True, 0.674, 0.134661
2023/06/15 22:00:16.845, True, 0.332, 0.134585
2023/06/15 22:00:17.342, True, 0.673, 0.135119
2023/06/15 22:00:17.846, True, 0.332, 0.134508
2023/06/15 22:00:18.350, True, 0.662, 0.136110
2023/06/15 22:00:18.854, True, 0.332, 0.136568
2023/06/15 22:00:19.350, True, 0.674, 0.135424
2023/06/15 22:00:19.854, True, 0.331, 0.134813
2023/06/15 22:00:20.358, True, 0.663, 0.134813
2023/06/15 22:00:20.854, True, 0.674, 0.133059
2023/06/15 22:00:21.358, True, 0.331, 0.136110
2023/06/15 22:00:21.862, True, 0.663, 0.135195
2023/06/15 22:00:22.365, True, 0.332, 0.134432
2023/06/15 22:00:22.862, True, 0.674, 0.135500
2023/06/15 22:00:23.366, True, 0.332, 0.134203
2023/06/15 22:00:23.869, True, 0.663, 0.133669
2023/06/15 22:00:24.366, True, 0.337, 0.133669
2023/06/15 22:00:24.870, True, 0.663, 0.134813
2023/06/15 22:00:25.374, True, 0.332, 0.132601
2023/06/15 22:00:25.870, True, 0.674, 0.133440
2023/06/15 22:00:26.374, True, 0.663, 0.164569
2023/06/15 22:00:26.877, True, 0.332, 0.133745
2023/06/15 22:00:27.374, True, 0.674, 0.133364
2023/06/15 22:00:27.878, True, 0.663, 0.133059
2023/06/15 22:00:28.382, True, 0.332, 0.134813
2023/06/15 22:00:28.878, True, 0.673, 0.134127
2023/06/15 22:00:29.382, True, 0.332, 0.134737
2023/06/15 22:00:29.886, True, 0.662, 0.135119
2023/06/15 22:00:30.382, True, 0.337, 0.132982
2023/06/15 22:00:30.886, True, 0.663, 0.135805
2023/06/15 22:00:31.390, True, 0.332, 0.134508
2023/06/15 22:00:31.886, True, 0.673, 0.134127
2023/06/15 22:00:32.390, True, 0.332, 0.136187
2023/06/15 22:00:32.894, True, 0.663, 0.133059
2023/06/15 22:00:33.390, True, 0.337, 0.134508
2023/06/15 22:00:33.894, True, 0.663, 0.134890
2023/06/15 22:00:34.398, True, 0.332, 0.135195
2023/06/15 22:00:34.894, True, 0.674, 0.133516
2023/06/15 22:00:35.398, True, 0.663, 0.135271
2023/06/15 22:00:35.902, True, 0.332, 0.134279
2023/06/15 22:00:36.398, True, 0.674, 0.132448
2023/06/15 22:00:36.902, True, 0.332, 0.135195
2023/06/15 22:00:37.406, True, 0.663, 0.132906
2023/06/15 22:00:37.902, True, 0.337, 0.134432
2023/06/15 22:00:38.406, True, 0.663, 0.132906
2023/06/15 22:00:38.901, True, 0.338, 0.136873
2023/06/15 22:00:39.406, True, 0.662, 0.134890
2023/06/15 22:00:39.909, True, 0.332, 0.137636
2023/06/15 22:00:40.406, True, 0.674, 0.137026
2023/06/15 22:00:40.910, True, 0.332, 0.133745
2023/06/15 22:00:41.414, True, 0.663, 0.134661
2023/06/15 22:00:41.918, True, 0.332, 0.134813
2023/06/15 22:00:42.413, True, 0.674, 0.133135
2023/06/15 22:00:42.918, True, 0.332, 0.135729
2023/06/15 22:00:43.414, True, 0.674, 0.134585
2023/06/15 22:00:43.918, True, 0.331, 0.134813
2023/06/15 22:00:44.421, True, 0.664, 0.135653
2023/06/15 22:00:44.917, True, 0.673, 0.132601
2023/06/15 22:00:45.421, True, 0.332, 0.135805
2023/06/15 22:00:45.925, True, 0.662, 0.135119
2023/06/15 22:00:46.430, True, 0.332, 0.136034
2023/06/15 22:00:46.925, True, 0.674, 0.135729
2023/06/15 22:00:47.429, True, 0.332, 0.134508
2023/06/15 22:00:47.933, True, 0.663, 0.133364
2023/06/15 22:00:48.430, True, 0.337, 0.134661
2023/06/15 22:00:48.933, True, 0.663, 0.133364
2023/06/15 22:00:49.437, True, 0.332, 0.133974
2023/06/15 22:00:49.934, True, 0.674, 0.132448
2023/06/15 22:00:50.438, True, 0.332, 0.133135
2023/06/15 22:00:50.942, True, 0.662, 0.135653
2023/06/15 22:00:51.437, True, 0.337, 0.134585
2023/06/15 22:00:51.942, True, 0.664, 0.132906
2023/06/15 22:00:52.437, True, 0.337, 0.133593
2023/06/15 22:00:52.942, True, 0.662, 0.132753
2023/06/15 22:00:53.446, True, 0.664, 0.131838
2023/06/15 22:00:53.950, True, 0.331, 0.135576
2023/06/15 22:00:54.445, True, 0.337, 0.135119
2023/06/15 22:00:54.950, True, 0.662, 0.133364
2023/06/15 22:00:55.454, True, 0.332, 0.135042
2023/06/15 22:00:55.949, True, 0.674, 0.133822
2023/06/15 22:00:56.454, True, 0.332, 0.136492
2023/06/15 22:00:56.957, True, 0.663, 0.134203
2023/06/15 22:00:57.454, True, 0.337, 0.132753
2023/06/15 22:00:57.957, True, 0.662, 0.135271
2023/06/15 22:00:58.462, True, 0.332, 0.135576
2023/06/15 22:00:58.958, True, 0.674, 0.134737
2023/06/15 22:00:59.462, True, 0.332, 0.135805
2023/06/15 22:00:59.966, True, 0.662, 0.134585
2023/06/15 22:01:00.462, True, 0.337, 0.137407
2023/06/15 22:01:00.966, True, 0.664, 0.135729
2023/06/15 22:01:01.469, True, 0.331, 0.134127
2023/06/15 22:01:01.965, True, 0.674, 0.134966
2023/06/15 22:01:02.470, True, 0.332, 0.134508
2023/06/15 22:01:02.974, True, 0.663, 0.135195
2023/06/15 22:01:03.470, True, 0.337, 0.133135
2023/06/15 22:01:03.974, True, 0.663, 0.136568
2023/06/15 22:01:04.469, True, 0.337, 0.134737
2023/06/15 22:01:04.974, True, 0.663, 0.136492
2023/06/15 22:01:05.478, True, 0.332, 0.134432
2023/06/15 22:01:05.974, True, 0.673, 0.135271
2023/06/15 22:01:06.478, True, 0.332, 0.134356
2023/06/15 22:01:06.982, True, 0.663, 0.134813
2023/06/15 22:01:07.478, True, 0.337, 0.137636
2023/06/15 22:01:07.982, True, 0.664, 0.134890
2023/06/15 22:01:08.486, True, 0.331, 0.132753
2023/06/15 22:01:08.982, True, 0.337, 0.133822
2023/06/15 22:01:09.486, True, 0.663, 0.136034
2023/06/15 22:01:09.990, True, 0.332, 0.133135
2023/06/15 22:01:10.485, True, 0.674, 0.133898
2023/06/15 22:01:10.989, True, 0.332, 0.134432
2023/06/15 22:01:11.494, True, 0.663, 0.134813
2023/06/15 22:01:11.990, True, 0.337, 0.134432
2023/06/15 22:01:12.494, True, 0.663, 0.135195
2023/06/15 22:01:12.997, True, 0.332, 0.131685
2023/06/15 22:01:13.494, True, 0.674, 0.136873
2023/06/15 22:01:13.998, True, 0.332, 0.135576
2023/06/15 22:01:14.502, True, 0.664, 0.132448
2023/06/15 22:01:14.998, True, 0.337, 0.136034
2023/06/15 22:01:15.502, True, 0.663, 0.136110
2023/06/15 22:01:16.005, True, 0.332, 0.135424
2023/06/15 22:01:16.502, True, 0.674, 0.134279
2023/06/15 22:01:17.006, True, 0.332, 0.135500
2023/06/15 22:01:17.510, True, 0.332, 0.136110
2023/06/15 22:01:18.013, True, 0.664, 0.135424
2023/06/15 22:01:18.510, True, 0.337, 0.137636
2023/06/15 22:01:19.014, True, 0.663, 0.132677
2023/06/15 22:01:19.510, True, 0.337, 0.135271
2023/06/15 22:01:20.013, True, 0.663, 0.134508
2023/06/15 22:01:20.518, True, 0.663, 0.135195
2023/06/15 22:01:21.013, True, 0.337, 0.135500
2023/06/15 22:01:21.518, True, 0.663, 0.133669
2023/06/15 22:01:22.021, True, 0.332, 0.134051
2023/06/15 22:01:22.518, True, 0.674, 0.133593
2023/06/15 22:01:23.022, True, 0.332, 0.134127
2023/06/15 22:01:23.526, True, 0.332, 0.134813
2023/06/15 22:01:24.022, True, 0.674, 0.133669
2023/06/15 22:01:24.526, True, 0.332, 0.136873
2023/06/15 22:01:25.030, True, 0.664, 0.134279
2023/06/15 22:01:25.534, True, 0.331, 0.134356
2023/06/15 22:01:26.030, True, 0.337, 0.135195
2023/06/15 22:01:26.533, True, 0.663, 0.132448
2023/06/15 22:01:27.038, True, 0.332, 0.134508
2023/06/15 22:01:27.534, True, 0.674, 0.134585
2023/06/15 22:01:28.038, True, 0.663, 0.134813
2023/06/15 22:01:28.533, True, 0.337, 0.133288
2023/06/15 22:01:29.038, True, 0.664, 0.134813
2023/06/15 22:01:29.542, True, 0.331, 0.134966
2023/06/15 22:01:30.038, True, 0.674, 0.135195
2023/06/15 22:01:30.542, True, 0.332, 0.134432
2023/06/15 22:01:31.046, True, 0.331, 0.135576
2023/06/15 22:01:31.542, True, 0.674, 0.134737
2023/06/15 22:01:32.045, True, 0.663, 0.136339
2023/06/15 22:01:32.550, True, 0.332, 0.136187
2023/06/15 22:01:33.053, True, 0.332, 0.135729
2023/06/15 22:01:33.550, True, 0.674, 0.131914
2023/06/15 22:01:34.054, True, 0.332, 0.134890
2023/06/15 22:01:34.550, True, 0.674, 0.133211
2023/06/15 22:01:35.054, True, 0.663, 0.135042
2023/06/15 22:01:35.558, True, 0.332, 0.132982
2023/06/15 22:01:36.054, True, 0.674, 0.135348
2023/06/15 22:01:36.558, True, 0.332, 0.134813
2023/06/15 22:01:37.062, True, 0.331, 0.134813
2023/06/15 22:01:37.558, True, 0.674, 0.132830
2023/06/15 22:01:38.061, True, 0.663, 0.134737
2023/06/15 22:01:38.566, True, 0.332, 0.135882
2023/06/15 22:01:39.061, True, 0.674, 0.131685
2023/06/15 22:01:39.566, True, 0.332, 0.135424
2023/06/15 22:01:40.070, True, 0.663, 0.135500
2023/06/15 22:01:40.566, True, 0.337, 0.134661
2023/06/15 22:01:41.069, True, 0.663, 0.133135
2023/06/15 22:01:41.574, True, 0.332, 0.136645
2023/06/15 22:01:42.070, True, 0.674, 0.133440
2023/06/15 22:01:42.574, True, 0.332, 0.134432
2023/06/15 22:01:43.069, True, 0.337, 0.136034
2023/06/15 22:01:43.574, True, 0.663, 0.132906
2023/06/15 22:01:44.078, True, 0.332, 0.135424
2023/06/15 22:01:44.582, True, 0.663, 0.134203
2023/06/15 22:01:45.077, True, 0.674, 0.135195
2023/06/15 22:01:45.582, True, 0.332, 0.132906
2023/06/15 22:01:46.086, True, 0.662, 0.136263
2023/06/15 22:01:46.581, True, 0.337, 0.134890
2023/06/15 22:01:47.086, True, 0.662, 0.138323
2023/06/15 22:01:47.589, True, 0.332, 0.137407
2023/06/15 22:01:48.085, True, 0.673, 0.137255
2023/06/15 22:01:48.590, True, 0.332, 0.136187
2023/06/15 22:01:49.093, True, 0.664, 0.138552
2023/06/15 22:01:49.589, True, 0.337, 0.135424
2023/06/15 22:01:50.094, True, 0.664, 0.137179
2023/06/15 22:01:50.597, True, 0.331, 0.133135
2023/06/15 22:01:51.093, True, 0.674, 0.135882
2023/06/15 22:01:51.598, True, 0.332, 0.136110
2023/06/15 22:01:52.101, True, 0.664, 0.136339
2023/06/15 22:01:52.598, True, 0.337, 0.138018
2023/06/15 22:01:53.101, True, 0.664, 0.137331
2023/06/15 22:01:53.605, True, 0.331, 0.137865
2023/06/15 22:01:54.101, True, 0.674, 0.137942
2023/06/15 22:01:54.606, True, 0.332, 0.136339
2023/06/15 22:01:55.102, True, 0.674, 0.137636
2023/06/15 22:01:55.605, True, 0.331, 0.137331
2023/06/15 22:01:56.110, True, 0.664, 0.139620
2023/06/15 22:01:56.613, True, 0.662, 0.139391
2023/06/15 22:01:57.109, True, 0.337, 0.139315
2023/06/15 22:01:57.614, True, 0.663, 0.138476
2023/06/15 22:01:58.109, True, 0.337, 0.137713
2023/06/15 22:01:58.613, True, 0.663, 0.139620
2023/06/15 22:01:59.118, True, 0.332, 0.140002
2023/06/15 22:01:59.621, True, 0.331, 0.137636
2023/06/15 22:02:00.118, True, 0.674, 0.139010
2023/06/15 22:02:00.621, True, 0.332, 0.139696
2023/06/15 22:02:01.125, True, 0.663, 0.140230
2023/06/15 22:02:01.622, True, 0.337, 0.141070
2023/06/15 22:02:02.125, True, 0.663, 0.141680
2023/06/15 22:02:02.630, True, 0.332, 0.141299
2023/06/15 22:02:03.126, True, 0.674, 0.141070
2023/06/15 22:02:03.629, True, 0.332, 0.139239
2023/06/15 22:02:04.134, True, 0.663, 0.140459
2023/06/15 22:02:04.629, True, 0.337, 0.141604
2023/06/15 22:02:05.134, True, 0.663, 0.138933
2023/06/15 22:02:05.629, True, 0.337, 0.139696
2023/06/15 22:02:06.133, True, 0.663, 0.140612
2023/06/15 22:02:06.637, True, 0.332, 0.141299
2023/06/15 22:02:07.133, True, 0.674, 0.140764
2023/06/15 22:02:07.638, True, 0.332, 0.141375
2023/06/15 22:02:08.141, True, 0.664, 0.140383
2023/06/15 22:02:08.637, True, 0.337, 0.143206
2023/06/15 22:02:09.141, True, 0.664, 0.140459
2023/06/15 22:02:09.645, True, 0.331, 0.142901
2023/06/15 22:02:10.142, True, 0.674, 0.140917
2023/06/15 22:02:10.645, True, 0.332, 0.140764
2023/06/15 22:02:11.149, True, 0.331, 0.145190
2023/06/15 22:02:11.645, True, 0.674, 0.141451
2023/06/15 22:02:12.149, True, 0.331, 0.140688
2023/06/15 22:02:12.653, True, 0.663, 0.141604
2023/06/15 22:02:13.157, True, 0.332, 0.142367
2023/06/15 22:02:13.654, True, 0.674, 0.138628
2023/06/15 22:02:14.157, True, 0.332, 0.142367
2023/06/15 22:02:14.654, True, 0.673, 0.139467
2023/06/15 22:02:15.157, True, 0.332, 0.140612
2023/06/15 22:02:15.661, True, 0.663, 0.139086
2023/06/15 22:02:16.157, True, 0.337, 0.142061
2023/06/15 22:02:16.661, True, 0.663, 0.142672
2023/06/15 22:02:17.165, True, 0.332, 0.142596
2023/06/15 22:02:17.669, True, 0.664, 0.143053
2023/06/15 22:02:18.165, True, 0.336, 0.139010
2023/06/15 22:02:18.669, True, 0.663, 0.142748
2023/06/15 22:02:19.166, True, 0.337, 0.141299
2023/06/15 22:02:19.669, True, 0.332, 0.141070
2023/06/15 22:02:20.173, True, 0.663, 0.142290
2023/06/15 22:02:20.669, True, 0.337, 0.143282
2023/06/15 22:02:21.174, True, 0.663, 0.142824
2023/06/15 22:02:21.677, True, 0.332, 0.144198
2023/06/15 22:02:22.173, True, 0.674, 0.141451
2023/06/15 22:02:22.677, True, 0.332, 0.140688
2023/06/15 22:02:23.181, True, 0.664, 0.141909
2023/06/15 22:02:23.677, True, 0.337, 0.146334
2023/06/15 22:02:24.181, True, 0.332, 0.140688
2023/06/15 22:02:24.685, True, 0.664, 0.140764
2023/06/15 22:02:25.182, True, 0.337, 0.143435
2023/06/15 22:02:25.686, True, 0.662, 0.142748
2023/06/15 22:02:26.189, True, 0.332, 0.142138
2023/06/15 22:02:26.685, True, 0.674, 0.142824
2023/06/15 22:02:27.189, True, 0.332, 0.140841
2023/06/15 22:02:27.693, True, 0.663, 0.142290
2023/06/15 22:02:28.189, True, 0.337, 0.142443
2023/06/15 22:02:28.693, True, 0.663, 0.141909
2023/06/15 22:02:29.197, True, 0.331, 0.144350
2023/06/15 22:02:29.701, True, 0.664, 0.142672
2023/06/15 22:02:30.197, True, 0.337, 0.142214
2023/06/15 22:02:30.701, True, 0.663, 0.143130
2023/06/15 22:02:31.205, True, 0.331, 0.144121
2023/06/15 22:02:31.701, True, 0.675, 0.144121
2023/06/15 22:02:32.205, True, 0.332, 0.142824
2023/06/15 22:02:32.709, True, 0.331, 0.143359
2023/06/15 22:02:33.206, True, 0.674, 0.143664
2023/06/15 22:02:33.709, True, 0.332, 0.144198
2023/06/15 22:02:34.213, True, 0.664, 0.144274
2023/06/15 22:02:34.717, True, 0.662, 0.144732
2023/06/15 22:02:35.213, True, 0.337, 0.143740
2023/06/15 22:02:35.718, True, 0.332, 0.144884
2023/06/15 22:02:36.221, True, 0.663, 0.145266
2023/06/15 22:02:36.717, True, 0.337, 0.143282
2023/06/15 22:02:37.221, True, 0.663, 0.143359
2023/06/15 22:02:37.725, True, 0.332, 0.143893
2023/06/15 22:02:38.221, True, 0.674, 0.142519
2023/06/15 22:02:38.725, True, 0.332, 0.143435
2023/06/15 22:02:39.229, True, 0.664, 0.143664
2023/06/15 22:02:39.725, True, 0.337, 0.143282
2023/06/15 22:02:40.229, True, 0.664, 0.141680
2023/06/15 22:02:40.733, True, 0.331, 0.145876
2023/06/15 22:02:41.229, True, 0.337, 0.142672
2023/06/15 22:02:41.734, True, 0.663, 0.145266
2023/06/15 22:02:42.237, True, 0.332, 0.143740
2023/06/15 22:02:42.733, True, 0.337, 0.142138
2023/06/15 22:02:43.237, True, 0.663, 0.144884
2023/06/15 22:02:43.741, True, 0.332, 0.143664
2023/06/15 22:02:44.237, True, 0.674, 0.143511
2023/06/15 22:02:44.741, True, 0.332, 0.144579
2023/06/15 22:02:45.237, True, 0.674, 0.145190
2023/06/15 22:02:45.741, True, 0.332, 0.142901
2023/06/15 22:02:46.245, True, 0.663, 0.146868
2023/06/15 22:02:46.750, True, 0.663, 0.144884
2023/06/15 22:02:47.245, True, 0.337, 0.143969
2023/06/15 22:02:47.749, True, 0.332, 0.145724
2023/06/15 22:02:48.245, True, 0.674, 0.144350
2023/06/15 22:02:48.749, True, 0.332, 0.143053
2023/06/15 22:02:49.253, True, 0.663, 0.143969
2023/06/15 22:02:49.749, True, 0.337, 0.145342
2023/06/15 22:02:50.253, True, 0.332, 0.145571
2023/06/15 22:02:50.757, True, 0.663, 0.145418
2023/06/15 22:02:51.254, True, 0.337, 0.143816
2023/06/15 22:02:51.757, True, 0.663, 0.142138
2023/06/15 22:02:52.261, True, 0.332, 0.143816
2023/06/15 22:02:52.757, True, 0.674, 0.142290
2023/06/15 22:02:53.261, True, 0.332, 0.144961
2023/06/15 22:02:53.765, True, 0.332, 0.145418
2023/06/15 22:02:54.261, True, 0.675, 0.144579
2023/06/15 22:02:54.765, True, 0.331, 0.141451
2023/06/15 22:02:55.269, True, 0.663, 0.145113
2023/06/15 22:02:55.765, True, 0.337, 0.141604
2023/06/15 22:02:56.269, True, 0.663, 0.146639
2023/06/15 22:02:56.773, True, 0.332, 0.142977
2023/06/15 22:02:57.269, True, 0.674, 0.145953
2023/06/15 22:02:57.773, True, 0.332, 0.146258
2023/06/15 22:02:58.277, True, 0.332, 0.144503
2023/06/15 22:02:58.773, True, 0.674, 0.145113
2023/06/15 22:02:59.277, True, 0.332, 0.145190
2023/06/15 22:02:59.781, True, 0.663, 0.142061
2023/06/15 22:03:00.277, True, 0.338, 0.145495
2023/06/15 22:03:00.781, True, 0.662, 0.145266
2023/06/15 22:03:01.285, True, 0.332, 0.142672
2023/06/15 22:03:01.781, True, 0.337, 0.143053
2023/06/15 22:03:02.285, True, 0.663, 0.145418
2023/06/15 22:03:02.789, True, 0.332, 0.143130
2023/06/15 22:03:03.285, True, 0.673, 0.143969
2023/06/15 22:03:03.789, True, 0.332, 0.144884
2023/06/15 22:03:04.285, True, 0.674, 0.141604
2023/06/15 22:03:04.789, True, 0.332, 0.145113
2023/06/15 22:03:05.293, True, 0.331, 0.143893
2023/06/15 22:03:05.789, True, 0.675, 0.145190
2023/06/15 22:03:06.293, True, 0.332, 0.143664
2023/06/15 22:03:06.797, True, 0.662, 0.140612
2023/06/15 22:03:07.293, True, 0.337, 0.144884
2023/06/15 22:03:07.797, True, 0.663, 0.143740
2023/06/15 22:03:08.301, True, 0.332, 0.144656
2023/06/15 22:03:08.797, True, 0.674, 0.144884
2023/06/15 22:03:09.301, True, 0.332, 0.141604
2023/06/15 22:03:09.805, True, 0.663, 0.143053
2023/06/15 22:03:10.300, True, 0.337, 0.143664
2023/06/15 22:03:10.805, True, 0.331, 0.144350
2023/06/15 22:03:11.309, True, 0.663, 0.144350
2023/06/15 22:03:11.805, True, 0.337, 0.143893
2023/06/15 22:03:12.309, True, 0.663, 0.144198
2023/06/15 22:03:12.813, True, 0.332, 0.144732
2023/06/15 22:03:13.309, True, 0.673, 0.143587
2023/06/15 22:03:13.813, True, 0.332, 0.144579
2023/06/15 22:03:14.317, True, 0.663, 0.144884
2023/06/15 22:03:14.813, True, 0.337, 0.144274
2023/06/15 22:03:15.317, True, 0.331, 0.142367
2023/06/15 22:03:15.821, True, 0.663, 0.141146
2023/06/15 22:03:16.317, True, 0.337, 0.145495
2023/06/15 22:03:16.821, True, 0.663, 0.143282
2023/06/15 22:03:17.325, True, 0.332, 0.143816
2023/06/15 22:03:17.821, True, 0.674, 0.141909
2023/06/15 22:03:18.325, True, 0.332, 0.145037
2023/06/15 22:03:18.829, True, 0.663, 0.145495
2023/06/15 22:03:19.325, True, 0.337, 0.142977
2023/06/15 22:03:19.829, True, 0.332, 0.143359
2023/06/15 22:03:20.333, True, 0.663, 0.142061
2023/06/15 22:03:20.829, True, 0.337, 0.144350
2023/06/15 22:03:21.333, True, 0.663, 0.144656
2023/06/15 22:03:21.837, True, 0.332, 0.142977
2023/06/15 22:03:22.333, True, 0.337, 0.143740
2023/06/15 22:03:22.837, True, 0.663, 0.144350
2023/06/15 22:03:23.333, True, 0.674, 0.144121
2023/06/15 22:03:23.837, True, 0.332, 0.143740
2023/06/15 22:03:24.341, True, 0.663, 0.146258
2023/06/15 22:03:24.837, True, 0.337, 0.145418
2023/06/15 22:03:25.341, True, 0.332, 0.142061
2023/06/15 22:03:25.845, True, 0.662, 0.143511
2023/06/15 22:03:26.349, True, 0.332, 0.145418
2023/06/15 22:03:26.845, True, 0.674, 0.144961
2023/06/15 22:03:27.349, True, 0.332, 0.144961
2023/06/15 22:03:27.853, True, 0.664, 0.144045
2023/06/15 22:03:28.349, True, 0.336, 0.144961
2023/06/15 22:03:28.853, True, 0.663, 0.142672
2023/06/15 22:03:29.357, True, 0.332, 0.145037
2023/06/15 22:03:29.853, True, 0.337, 0.145800
2023/06/15 22:03:30.357, True, 0.663, 0.145724
2023/06/15 22:03:30.861, True, 0.332, 0.146105
2023/06/15 22:03:31.357, True, 0.674, 0.144274
2023/06/15 22:03:31.861, True, 0.332, 0.144427
2023/06/15 22:03:32.357, True, 0.674, 0.143740
2023/06/15 22:03:32.861, True, 0.332, 0.141909
2023/06/15 22:03:33.365, True, 0.663, 0.142977
2023/06/15 22:03:33.861, True, 0.337, 0.143053
2023/06/15 22:03:34.365, True, 0.332, 0.144274
2023/06/15 22:03:34.869, True, 0.663, 0.145876
2023/06/15 22:03:35.365, True, 0.337, 0.142977
2023/06/15 22:03:35.869, True, 0.663, 0.144274
2023/06/15 22:03:36.373, True, 0.332, 0.163958
2023/06/15 22:03:36.869, True, 0.673, 0.142443
2023/06/15 22:03:37.373, True, 0.332, 0.146181
2023/06/15 22:03:37.877, True, 0.663, 0.146029
2023/06/15 22:03:38.373, True, 0.337, 0.145418
2023/06/15 22:03:38.877, True, 0.663, 0.143206
2023/06/15 22:03:39.381, True, 0.332, 0.144427
2023/06/15 22:03:39.877, True, 0.674, 0.143587
2023/06/15 22:03:40.381, True, 0.332, 0.143969
2023/06/15 22:03:40.885, True, 0.332, 0.143740
2023/06/15 22:03:41.381, True, 0.673, 0.143893
2023/06/15 22:03:41.885, True, 0.332, 0.146029
2023/06/15 22:03:42.388, True, 0.332, 0.144961
2023/06/15 22:03:42.885, True, 0.674, 0.143816
2023/06/15 22:03:43.389, True, 0.332, 0.145037
2023/06/15 22:03:43.893, True, 0.663, 0.143435
2023/06/15 22:03:44.389, True, 0.337, 0.144579
2023/06/15 22:03:44.893, True, 0.663, 0.143969
2023/06/15 22:03:45.397, True, 0.332, 0.144732
2023/06/15 22:03:45.893, True, 0.337, 0.144121
2023/06/15 22:03:46.397, True, 0.663, 0.144503
2023/06/15 22:03:46.901, True, 0.332, 0.144808
2023/06/15 22:03:47.397, True, 0.674, 0.142367
2023/06/15 22:03:47.901, True, 0.332, 0.144579
2023/06/15 22:03:48.405, True, 0.662, 0.144427
2023/06/15 22:03:48.901, True, 0.337, 0.143816
2023/06/15 22:03:49.405, True, 0.331, 0.144732
2023/06/15 22:03:49.909, True, 0.663, 0.144274
2023/06/15 22:03:50.405, True, 0.337, 0.143282
2023/06/15 22:03:50.909, True, 0.663, 0.145190
2023/06/15 22:03:51.413, True, 0.332, 0.143435
2023/06/15 22:03:51.909, True, 0.337, 0.143282
2023/06/15 22:03:52.413, True, 0.665, 0.143969
2023/06/15 22:03:52.917, True, 0.331, 0.143893
2023/06/15 22:03:53.412, True, 0.674, 0.145037
2023/06/15 22:03:53.917, True, 0.332, 0.143664
2023/06/15 22:03:54.421, True, 0.663, 0.146029
2023/06/15 22:03:54.916, True, 0.337, 0.143893
2023/06/15 22:03:55.421, True, 0.663, 0.143130
2023/06/15 22:03:55.925, True, 0.332, 0.144350
2023/06/15 22:03:56.421, True, 0.337, 0.144503
2023/06/15 22:03:56.925, True, 0.664, 0.144656
2023/06/15 22:03:57.429, True, 0.331, 0.144045
2023/06/15 22:03:57.925, True, 0.674, 0.144808
2023/06/15 22:03:58.428, True, 0.331, 0.143893
2023/06/15 22:03:58.932, True, 0.663, 0.145800
2023/06/15 22:03:59.429, True, 0.337, 0.144121
2023/06/15 22:03:59.933, True, 0.332, 0.143053
2023/06/15 22:04:00.437, True, 0.662, 0.143740
2023/06/15 22:04:00.933, True, 0.337, 0.144427
2023/06/15 22:04:01.437, True, 0.332, 0.145190
2023/06/15 22:04:01.941, True, 0.663, 0.143511
2023/06/15 22:04:02.437, True, 0.337, 0.143969
2023/06/15 22:04:02.941, True, 0.663, 0.143511
2023/06/15 22:04:03.445, True, 0.332, 0.143969
2023/06/15 22:04:03.941, True, 0.674, 0.143435
2023/06/15 22:04:04.445, True, 0.332, 0.144198
2023/06/15 22:04:04.949, True, 0.663, 0.145342
2023/06/15 22:04:05.445, True, 0.337, 0.145724
2023/06/15 22:04:05.949, True, 0.331, 0.142443
2023/06/15 22:04:06.453, True, 0.664, 0.143587
2023/06/15 22:04:06.949, True, 0.337, 0.144884
2023/06/15 22:04:07.453, True, 0.663, 0.143511
2023/06/15 22:04:07.957, True, 0.332, 0.144503
2023/06/15 22:04:08.461, True, 0.663, 0.145800
2023/06/15 22:04:08.957, True, 0.337, 0.144274
2023/06/15 22:04:09.461, True, 0.663, 0.143587
2023/06/15 22:04:09.957, True, 0.337, 0.145266
2023/06/15 22:04:10.461, True, 0.663, 0.144503
2023/06/15 22:04:10.965, True, 0.332, 0.144198
2023/06/15 22:04:11.461, True, 0.337, 0.144961
2023/06/15 22:04:11.965, True, 0.663, 0.143587
2023/06/15 22:04:12.469, True, 0.332, 0.142977
2023/06/15 22:04:12.965, True, 0.675, 0.144045
2023/06/15 22:04:13.469, True, 0.331, 0.143435
2023/06/15 22:04:13.973, True, 0.332, 0.146639
2023/06/15 22:04:14.477, True, 0.663, 0.143053
2023/06/15 22:04:14.973, True, 0.338, 0.144121